EW6304 Weather Reports


time (UTC)temp
F
wind
direction
speed
knots
gust
knots
rain 1hr
in
rain 24hr
in
rain mn
in
humidity
%
barometer
mb
20260507070123 57 325 1.7 5.2 0.00 0.07 0.00 96 1004.8
20260507065621 57 230 0.9 5.2 0.00 0.07 0.00 96 1004.8
20260507065120 58 311 0.0 0.9 0.00 0.07 0.00 96 1004.7
20260507064622 58 311 0.0 0.9 0.00 0.07 0.00 96 1004.6
20260507064126 58 311 0.0 0.9 0.00 0.07 0.00 96 1004.6
20260507064122 58 311 0.0 0.9 0.00 0.07 0.00 96 1004.7
20260507063621 58 311 0.0 0.9 0.00 0.07 0.00 96 1004.7
20260507062622 58 311 0.0 0.9 0.00 0.07 0.00 96 1004.7
20260507062120 58 311 0.0 0.0 0.00 0.07 0.00 96 1004.7
20260507061620 58 311 0.0 0.9 0.00 0.07 0.00 96 1004.9
20260507061122 58 311 0.0 1.7 0.00 0.07 0.00 96 1004.9
20260507060620 58 311 0.0 1.7 0.00 0.07 0.00 96 1004.9
20260507060118 58 311 0.0 1.7 0.00 0.07 0.00 96 1005.0
20260507055620 58 311 0.0 1.7 0.00 0.07 0.00 96 1005.2
20260507055118 58 311 0.9 2.6 0.00 0.07 0.00 96 1005.3
20260507054616 58 311 0.9 3.5 0.00 0.07 0.00 96 1005.1
20260507054126 58 342 0.9 2.6 0.00 0.07 0.00 96 1005.3
20260507054116 58 309 0.9 3.5 0.00 0.07 0.00 96 1005.4
20260507053620 58 342 0.9 2.6 0.00 0.07 0.00 96 1005.1
20260507052615 58 115 0.9 2.6 0.00 0.07 0.00 96 1005.3
20260507052115 58 117 0.0 1.7 0.00 0.07 0.00 96 1005.2
20260507051615 58 117 0.0 0.9 0.00 0.07 0.00 96 1005.3
20260507051119 58 117 0.0 1.7 0.00 0.07 0.00 96 1005.5
20260507051115 58 117 0.0 1.7 0.00 0.07 0.00 96 1005.4
20260507050114 58 117 0.9 1.7 0.00 0.07 0.00 96 1005.5
20260507045615 58 118 0.9 2.6 0.00 0.07 0.00 96 1005.4
20260507045115 58 355 0.0 2.6 0.00 0.07 0.00 96 1005.6
20260507044616 58 355 0.0 1.7 0.00 0.07 0.00 96 1005.5
20260507044115 57 355 0.0 1.7 0.00 0.07 0.00 96 1005.5
20260507043615 57 355 0.0 1.7 0.00 0.07 0.00 96 1005.5
20260507043120 57 355 0.0 1.7 0.00 0.07 0.00 96 1005.2
20260507043116 57 355 0.0 1.7 0.00 0.07 0.00 96 1005.4
20260507042614 57 355 0.0 1.7 0.00 0.07 0.00 96 1005.3
20260507041614 57 355 0.0 1.7 0.00 0.07 0.00 96 1005.4
20260507041120 57 0 0.9 1.7 0.00 0.07 0.00 96 1005.3
20260507041115 57 355 0.9 1.7 0.00 0.07 0.00 96 1005.5
20260507040732 57 0 0.9 2.6 0.00 0.07 0.00 96 1005.4
20260507035616 57 0 0.9 2.6 0.00 0.07 0.07 96 1005.4
20260507035115 57 38 0.9 3.5 0.00 0.07 0.07 96 1005.5
20260507034615 57 355 0.9 3.5 0.00 0.07 0.07 96 1005.6
20260507034117 57 294 0.9 4.3 0.00 0.07 0.07 96 1005.8
20260507034112 57 350 0.9 4.3 0.00 0.07 0.07 96 1005.7
20260507033730 57 323 0.9 4.3 0.00 0.07 0.07 96 1005.5
20260507033111 57 323 0.9 4.3 0.00 0.07 0.07 96 1005.7
20260507032109 57 28 0.9 3.5 0.00 0.07 0.07 96 1005.4
20260507031609 57 28 0.9 4.3 0.00 0.07 0.07 96 1005.5
20260507031109 57 53 0.9 4.3 0.00 0.07 0.07 96 1005.4
20260507030609 57 327 0.9 3.5 0.00 0.07 0.07 96 1005.3
20260507030109 57 85 0.9 1.7 0.00 0.07 0.07 96 1005.3
20260507025611 57 95 0.9 4.3 0.00 0.07 0.07 96 1005.3
20260507025110 57 95 1.7 5.2 0.00 0.07 0.07 96 1005.2
20260507024609 57 277 0.9 5.2 0.00 0.07 0.07 96 1005.4
20260507024109 57 75 0.9 2.6 0.00 0.07 0.07 96 1005.3
20260507023614 57 26 0.9 3.5 0.00 0.07 0.07 96 1005.0
20260507023608 57 22 0.9 2.6 0.00 0.07 0.07 96 1005.1
20260507022607 57 121 0.9 3.5 0.00 0.07 0.07 96 1005.0
20260507022106 57 63 0.9 3.5 0.00 0.07 0.07 96 1005.3
20260507021606 57 42 0.9 3.5 0.00 0.07 0.07 96 1005.3
20260507021105 57 355 0.9 3.5 0.00 0.07 0.07 96 1005.4
20260507020607 57 84 0.9 3.5 0.00 0.07 0.07 96 1005.4
20260507020112 57 113 0.9 4.3 0.00 0.07 0.07 96 1005.5
20260507020107 57 114 0.9 4.3 0.00 0.07 0.07 96 1005.6
20260507015105 57 99 0.9 3.5 0.00 0.07 0.07 96 1005.9
20260507014607 57 72 0.9 3.5 0.00 0.07 0.07 95 1005.9
20260507014107 57 73 0.9 3.5 0.00 0.07 0.07 95 1005.7
20260507013606 57 327 0.9 3.5 0.00 0.07 0.07 95 1005.9
20260507013106 57 0 0.9 2.6 0.00 0.07 0.07 95 1005.9
20260507012603 57 336 0.9 2.6 0.00 0.07 0.07 95 1005.9
20260507012111 57 333 0.9 2.6 0.00 0.07 0.07 95 1006.0
20260507012105 57 333 0.9 1.7 0.00 0.07 0.07 95 1006.0
20260507011111 57 308 0.9 4.3 0.00 0.07 0.07 95 1006.0
20260507011106 57 316 0.9 2.6 0.00 0.07 0.07 95 1006.1
20260507010604 57 315 0.9 4.3 0.00 0.07 0.07 95 1006.1
20260507005608 57 46 0.9 4.3 0.01 0.07 0.07 95 1006.0
20260507005604 57 76 0.9 4.3 0.01 0.07 0.07 95 1006.0
20260507004603 57 123 1.7 4.3 0.01 0.07 0.07 95 1006.1
20260507004109 57 67 1.7 7.0 0.01 0.07 0.07 95 1005.9
20260507004104 57 204 1.7 4.3 0.01 0.07 0.07 95 1005.9
20260507003103 57 42 1.7 7.8 0.01 0.07 0.07 95 1006.0
20260507002601 57 65 1.7 7.8 0.01 0.07 0.07 95 1006.0
20260507002101 57 59 1.7 7.0 0.01 0.07 0.07 95 1006.0
20260507001603 57 61 1.7 7.0 0.01 0.07 0.07 95 1005.9
20260507001100 57 63 1.7 5.2 0.01 0.07 0.07 95 1005.8
20260507000600 57 49 1.7 5.2 0.01 0.07 0.07 95 1005.8
20260507000100 57 355 0.9 6.1 0.01 0.07 0.07 95 1005.8
20260506235600 57 36 1.7 7.0 0.00 0.06 0.06 95 1005.7
20260506235100 57 41 1.7 7.0 0.00 0.06 0.06 95 1005.6
20260506234605 57 32 1.7 7.0 0.01 0.06 0.06 94 1005.9
20260506234600 57 101 1.7 7.0 0.00 0.06 0.06 95 1005.8
20260506234219 57 75 1.7 6.1 0.01 0.06 0.06 94 1005.8
20260506233101 57 9 1.7 7.0 0.01 0.06 0.06 94 1005.9
20260506232606 57 69 1.7 9.6 0.03 0.06 0.06 94 1006.0
20260506232600 57 49 1.7 9.6 0.02 0.06 0.06 94 1005.8
20260506232217 57 49 1.7 7.8 0.03 0.06 0.06 94 1006.1
20260506231558 57 90 1.7 7.8 0.03 0.06 0.06 94 1006.0
20260506230600 58 88 0.9 5.2 0.04 0.06 0.06 94 1006.0
20260506230105 58 107 1.7 7.0 0.04 0.06 0.06 94 1005.9
20260506230100 58 119 1.7 7.0 0.04 0.06 0.06 94 1005.9
20260506225104 58 52 0.9 3.5 0.04 0.06 0.06 94 1005.8
20260506225059 58 86 0.9 4.3 0.04 0.06 0.06 94 1005.8
20260506224059 58 48 1.7 6.1 0.03 0.05 0.06 93 1005.9
20260506223559 58 174 1.7 6.1 0.03 0.05 0.05 93 1005.8
20260506223109 58 150 1.7 8.7 0.02 0.04 0.04 93 1006.2
20260506223058 58 71 1.7 4.3 0.03 0.05 0.05 93 1005.9
20260506222056 58 57 1.7 8.7 0.01 0.03 0.03 93 1006.2
20260506221558 58 186 1.7 7.8 0.01 0.03 0.03 93 1006.4
20260506221058 58 49 1.7 7.0 0.01 0.03 0.03 93 1006.3
20260506220557 58 65 1.7 7.0 0.00 0.02 0.02 93 1006.3
20260506220057 59 91 1.7 5.2 0.00 0.02 0.02 93 1006.3
20260506215603 59 171 1.7 5.2 0.00 0.02 0.02 92 1006.4
20260506215556 59 199 1.7 5.2 0.00 0.02 0.02 93 1006.5
20260506214559 59 9 1.7 6.1 0.00 0.02 0.02 92 1006.4
20260506214104 59 38 1.7 7.8 0.00 0.02 0.02 92 1006.4
20260506214057 59 152 1.7 8.7 0.00 0.02 0.02 92 1006.6
20260506213558 59 116 1.7 8.7 0.00 0.02 0.02 92 1006.5
20260506213214 59 157 1.7 7.8 0.00 0.02 0.02 92 1006.5
20260506212713 59 348 2.6 12.2 0.00 0.02 0.02 92 1006.7
20260506212056 59 61 2.6 12.2 0.00 0.02 0.02 92 1006.5
20260506211057 59 63 1.7 9.6 0.00 0.02 0.02 92 1006.6
20260506210715 59 112 1.7 5.2 0.01 0.02 0.02 92 1006.6
20260506210602 59 50 1.7 5.2 0.00 0.02 0.02 92 1006.7
20260506210557 59 24 1.7 6.1 0.00 0.02 0.02 92 1006.6
20260506205715 59 105 1.7 8.7 0.02 0.02 0.02 91 1006.7
20260506205056 59 0 1.7 5.2 0.02 0.02 0.02 92 1006.7
20260506204057 59 194 1.7 8.7 0.02 0.02 0.02 91 1006.9
20260506203555 59 76 1.7 7.8 0.02 0.02 0.02 91 1006.8
20260506203055 60 82 1.7 4.3 0.02 0.02 0.02 91 1006.9
20260506202556 60 279 1.7 7.0 0.02 0.02 0.02 91 1006.9
20260506202051 60 189 1.7 7.0 0.02 0.02 0.02 90 1006.9
20260506201551 60 85 1.7 9.6 0.02 0.02 0.02 90 1007.0
20260506201050 60 203 1.7 9.6 0.02 0.02 0.02 89 1007.0
20260506200550 61 46 1.7 4.3 0.02 0.02 0.02 89 1007.0
20260506200051 61 82 1.7 7.8 0.01 0.01 0.02 88 1007.1
20260506195553 62 116 1.7 3.5 0.00 0.00 0.00 86 1007.2
20260506195549 61 116 1.7 7.8 0.01 0.01 0.01 87 1007.0
20260506195207 63 150 1.7 5.2 0.00 0.00 0.00 82 1007.2
20260506194548 62 49 1.7 3.5 0.00 0.00 0.00 85 1007.2
20260506194049 62 49 1.7 5.2 0.00 0.00 0.00 84 1007.2
20260506193047 63 62 1.7 7.8 0.00 0.00 0.00 81 1007.2
20260506192548 63 184 1.7 7.8 0.00 0.00 0.00 79 1007.2
20260506192049 64 168 2.6 8.7 0.00 0.00 0.00 79 1007.2
20260506191549 64 245 2.6 8.7 0.00 0.00 0.00 79 1007.2
20260506191049 64 71 2.6 7.0 0.00 0.00 0.00 78 1007.3
20260506190548 64 51 2.6 8.7 0.00 0.00 0.00 78 1007.3
20260506190049 64 285 2.6 8.7 0.00 0.00 0.00 78 1007.3
20260506185549 64 92 2.6 7.0 0.00 0.00 0.00 77 1007.1
20260506185049 64 107 2.6 10.4 0.00 0.00 0.00 77 1007.0
20260506184548 65 44 2.6 10.4 0.00 0.00 0.00 76 1007.4
20260506184046 65 41 2.6 11.3 0.00 0.00 0.00 76 1007.3
20260506183547 65 65 2.6 11.3 0.00 0.00 0.00 76 1007.5
20260506183046 65 142 2.6 11.3 0.00 0.00 0.00 75 1007.4
20260506182547 66 132 2.6 11.3 0.00 0.00 0.00 75 1007.3
20260506182048 66 197 2.6 9.6 0.00 0.00 0.00 74 1007.4
20260506181547 66 311 2.6 7.8 0.00 0.00 0.00 75 1007.5
20260506181044 66 59 2.6 7.8 0.00 0.00 0.00 74 1007.6
20260506180549 67 91 2.6 10.4 0.00 0.00 0.00 73 1007.9
20260506180544 67 71 2.6 6.1 0.00 0.00 0.00 74 1007.8
20260506175546 67 132 2.6 10.4 0.00 0.00 0.00 73 1007.9
20260506175049 68 84 2.6 11.3 0.00 0.00 0.00 73 1008.1
20260506175044 68 165 2.6 11.3 0.00 0.00 0.00 73 1008.1
20260506174043 68 154 2.6 9.6 0.00 0.00 0.00 72 1008.3
20260506173544 68 46 2.6 10.4 0.00 0.00 0.00 72 1008.3
20260506173044 68 96 2.6 10.4 0.00 0.00 0.00 71 1008.2
20260506172549 70 128 2.6 14.8 0.00 0.00 0.00 69 1008.1
20260506172543 69 179 2.6 14.8 0.00 0.00 0.00 70 1008.1
20260506171543 71 82 2.6 8.7 0.00 0.00 0.00 68 1008.1
20260506171041 70 33 1.7 9.6 0.00 0.00 0.00 72 1008.1
20260506170543 69 157 1.7 9.6 0.00 0.00 0.00 72 1008.2
20260506170047 69 65 2.6 11.3 0.00 0.00 0.00 71 1008.4
20260506170043 68 159 2.6 6.1 0.00 0.00 0.00 71 1008.3
20260506165656 68 100 2.6 11.3 0.00 0.00 0.00 71 1008.5
20260506164541 69 122 2.6 7.8 0.00 0.00 0.00 70 1008.5
20260506164040 69 212 2.6 7.8 0.00 0.00 0.00 70 1008.5
20260506163541 69 279 2.6 7.8 0.00 0.00 0.00 70 1008.5
20260506163040 69 86 1.7 7.8 0.00 0.00 0.00 71 1008.7
20260506162537 69 57 1.7 7.0 0.00 0.00 0.00 70 1008.6
20260506162037 69 231 2.6 6.1 0.00 0.00 0.00 70 1008.7
20260506161538 69 328 2.6 7.8 0.00 0.00 0.00 70 1008.8
20260506161038 69 171 2.6 7.8 0.00 0.00 0.00 69 1009.0
20260506160543 70 159 1.7 7.8 0.00 0.00 0.00 69 1009.0
20260506160538 70 63 1.7 7.8 0.00 0.00 0.00 68 1008.9
20260506155536 70 113 2.6 8.7 0.00 0.00 0.00 69 1009.1
20260506155035 70 329 2.6 8.7 0.00 0.00 0.00 68 1009.2
20260506154541 70 182 1.7 10.4 0.00 0.00 0.00 70 1009.4
20260506154536 70 344 2.6 10.4 0.00 0.00 0.00 69 1009.2
20260506154034 69 92 2.6 8.7 0.00 0.00 0.00 70 1009.4
20260506153652 69 285 3.5 13.9 0.00 0.00 0.00 71 1009.3
20260506152535 68 160 2.6 13.9 0.00 0.00 0.00 71 1009.3
20260506152035 69 67 1.7 8.7 0.00 0.00 0.00 70 1009.6
20260506151534 69 34 1.7 8.7 0.00 0.00 0.00 71 1009.5
20260506151034 68 344 1.7 7.8 0.00 0.00 0.00 70 1009.4
20260506150535 69 178 1.7 7.8 0.00 0.00 0.00 70 1009.4
20260506150035 69 192 1.7 3.5 0.00 0.00 0.00 71 1009.5
20260506145534 68 109 1.7 8.7 0.00 0.00 0.00 71 1009.4
20260506145040 69 149 1.7 8.7 0.00 0.00 0.00 71 1009.1
20260506145036 69 200 1.7 8.7 0.00 0.00 0.00 70 1009.4
20260506144533 69 144 1.7 7.0 0.00 0.00 0.00 70 1009.2
20260506144154 69 117 1.7 8.7 0.00 0.00 0.00 70 1009.3
20260506143040 68 171 2.6 8.7 0.00 0.00 0.00 71 1009.3
20260506143033 69 78 2.6 7.0 0.00 0.00 0.00 72 1009.4
20260506142651 68 166 1.7 8.7 0.00 0.00 0.00 71 1009.1
20260506141539 68 146 1.7 7.8 0.00 0.00 0.00 72 1009.2
20260506141534 69 328 1.7 7.8 0.00 0.00 0.00 72 1009.2
20260506140534 68 41 1.7 7.8 0.00 0.00 0.00 70 1009.2
20260506140035 69 43 2.6 7.0 0.00 0.00 0.00 71 1009.3
20260506135535 68 175 1.7 10.4 0.00 0.00 0.00 72 1009.4
20260506135033 68 190 1.7 10.4 0.00 0.00 0.00 75 1009.5
20260506134537 67 123 1.7 8.7 0.00 0.00 0.00 73 1009.8
20260506134532 67 312 1.7 7.0 0.00 0.00 0.00 73 1009.7
20260506133532 67 57 2.6 8.7 0.00 0.00 0.00 76 1009.9
20260506133032 66 25 2.6 8.7 0.00 0.00 0.00 76 1009.9
20260506132532 66 121 2.6 8.7 0.00 0.00 0.00 76 1010.0
20260506132038 65 190 1.7 7.0 0.00 0.00 0.00 78 1009.8
20260506132033 65 294 1.7 7.0 0.00 0.00 0.00 77 1009.9
20260506131034 64 316 1.7 8.7 0.00 0.00 0.00 80 1009.8
20260506131029 64 58 1.7 8.7 0.00 0.00 0.00 80 1009.9
20260506130647 63 34 1.7 7.0 0.00 0.00 0.00 81 1010.2
20260506130029 63 154 1.7 7.0 0.00 0.00 0.00 82 1010.0
20260506125029 63 108 1.7 4.3 0.00 0.00 0.00 81 1010.0
20260506124534 62 178 2.6 7.8 0.00 0.00 0.00 82 1009.9
20260506124529 63 332 1.7 7.8 0.00 0.00 0.00 82 1009.9
20260506123527 62 78 1.7 7.0 0.00 0.00 0.00 82 1009.8
20260506123030 62 200 1.7 7.0 0.00 0.00 0.00 83 1009.6
20260506122527 62 59 1.7 7.0 0.00 0.00 0.00 83 1009.7
20260506122034 61 191 1.7 6.1 0.00 0.00 0.00 85 1010.2
20260506122028 62 158 1.7 6.1 0.00 0.00 0.00 84 1010.0
20260506121026 61 39 1.7 8.7 0.00 0.00 0.00 84 1010.4
20260506120530 61 209 1.7 7.8 0.00 0.00 0.00 84 1010.3
20260506120525 61 355 1.7 8.7 0.00 0.00 0.00 84 1010.3
20260506115526 61 130 1.7 7.8 0.00 0.00 0.00 85 1010.3
20260506115025 61 105 1.7 7.8 0.00 0.00 0.00 85 1010.3
20260506114531 60 107 1.7 4.3 0.00 0.00 0.00 87 1010.4
20260506114526 61 237 1.7 3.5 0.00 0.00 0.00 86 1010.5
20260506113525 60 155 1.7 6.1 0.00 0.00 0.00 88 1010.5
20260506113026 60 35 1.7 6.1 0.00 0.00 0.00 88 1010.5
20260506112525 59 61 1.7 7.8 0.00 0.00 0.00 88 1010.4
20260506112024 59 154 1.7 7.8 0.00 0.00 0.00 89 1010.5
20260506111523 59 18 1.7 6.1 0.00 0.00 0.00 89 1010.4
20260506111023 59 168 1.7 7.0 0.00 0.00 0.00 89 1010.4
20260506110525 58 92 1.7 10.4 0.00 0.00 0.00 89 1010.3
20260506110024 58 325 1.7 10.4 0.00 0.00 0.00 90 1010.5
20260506105528 58 331 1.7 8.7 0.00 0.00 0.00 90 1010.5
20260506105523 58 331 1.7 6.1 0.00 0.00 0.00 90 1010.4
20260506104524 58 0 1.7 8.7 0.00 0.00 0.00 90 1010.5
20260506104023 58 61 1.7 4.3 0.00 0.00 0.00 91 1010.4
20260506103524 58 130 1.7 4.3 0.00 0.00 0.00 91 1010.4
20260506103022 58 36 1.7 7.0 0.00 0.00 0.00 91 1010.4
20260506102523 58 227 1.7 7.0 0.00 0.00 0.00 91 1010.4
20260506102027 58 12 0.9 4.3 0.00 0.00 0.00 91 1010.2
20260506102022 58 29 1.7 5.2 0.00 0.00 0.00 91 1010.3
20260506101024 57 45 1.7 6.1 0.00 0.00 0.00 91 1010.2
20260506101019 57 101 1.7 6.1 0.00 0.00 0.00 91 1010.3
20260506100020 57 133 1.7 6.1 0.00 0.00 0.00 91 1010.1
20260506095520 57 74 1.7 6.1 0.00 0.00 0.00 91 1010.1
20260506095018 57 9 1.7 4.3 0.00 0.00 0.00 91 1010.1
20260506094518 57 140 0.9 4.3 0.00 0.00 0.00 91 1010.1
20260506094016 57 58 0.9 4.3 0.00 0.00 0.00 91 1010.2
20260506093516 57 324 0.9 4.3 0.00 0.00 0.00 91 1010.2
20260506093016 57 138 0.9 4.3 0.00 0.00 0.00 91 1010.1
20260506092514 57 84 0.9 5.2 0.00 0.00 0.00 90 1010.2
20260506092014 57 162 0.9 5.2 0.00 0.00 0.00 90 1010.1
20260506091518 57 58 1.7 8.7 0.00 0.00 0.00 90 1010.1
20260506091513 57 64 1.7 8.7 0.00 0.00 0.00 90 1010.2
20260506090516 57 280 0.9 5.2 0.00 0.00 0.00 90 1010.2
20260506090512 57 46 1.7 5.2 0.00 0.00 0.00 90 1010.2
20260506090131 57 59 1.7 5.2 0.00 0.00 0.00 90 1010.1
20260506085012 57 56 0.9 5.2 0.00 0.00 0.00 90 1010.2
20260506084512 57 72 0.9 3.5 0.00 0.00 0.00 90 1010.2
20260506084016 57 0 0.9 4.3 0.00 0.00 0.00 89 1010.3
20260506084011 57 10 1.7 4.3 0.00 0.00 0.00 89 1010.4
20260506083009 57 48 0.9 4.3 0.00 0.00 0.00 89 1010.2
20260506082509 57 82 1.7 7.8 0.00 0.00 0.00 89 1010.2
20260506082009 58 114 1.7 7.8 0.00 0.00 0.00 89 1010.3
20260506081510 57 110 1.7 4.3 0.00 0.00 0.00 89 1010.2
20260506081010 57 28 1.7 7.0 0.00 0.00 0.00 89 1010.3
20260506080508 57 84 1.7 7.0 0.00 0.00 0.00 89 1010.3
20260506073508 58 39 1.7 4.3 0.00 0.00 0.00 88 1010.2
20260506073009 58 86 1.7 4.3 0.00 0.00 0.00 88 1010.3
20260506072510 57 274 1.7 4.3 0.00 0.00 0.00 88 1010.2
20260506072009 57 343 1.7 6.1 0.00 0.00 0.00 88 1010.2
20260506071514 58 78 0.9 4.3 0.00 0.00 0.00 87 1010.2
20260506071509 57 44 1.7 6.1 0.00 0.00 0.00 88 1010.1
20260506070509 58 111 0.9 7.8 0.00 0.00 0.00 87 1010.2